| time (UTC) | temp C | wind direction | speed KPH | gust KPH | rain 1hr cm | rain 24hr cm | rain mn cm | humidity % | barometer mb |
| 20260509033015 | 19 | 304 | 12.9 | 24.1 | 0.00 | 2.90 | 0.25 | 77 | 1003.9 |
| 20260509030016 | 20 | 267 | 11.3 | 19.3 | 0.00 | 2.90 | 0.25 | 77 | 1003.9 |
| 20260509023022 | 20 | 251 | 12.9 | 19.3 | 0.00 | 2.90 | 0.25 | 73 | 1003.6 |
| 20260509020027 | 20 | 295 | 6.4 | 25.7 | 0.00 | 2.90 | 0.25 | 73 | 1003.6 |
| 20260509013028 | 20 | 312 | 9.7 | 25.7 | 0.00 | 2.90 | 0.25 | 75 | 1003.8 |
| 20260509010023 | 18 | 275 | 9.7 | 22.5 | 0.00 | 2.90 | 0.25 | 81 | 1004.3 |
| 20260509003019 | 20 | 260 | 8.0 | 27.4 | 0.00 | 2.90 | 0.25 | 78 | 1004.7 |
| 20260509000034 | 18 | 315 | 8.0 | 16.1 | 0.00 | 2.90 | 0.25 | 85 | 1005.4 |
| 20260508233023 | 17 | 265 | 4.8 | 9.7 | 0.99 | 2.90 | 0.25 | 92 | 1005.9 |
| 20260508230040 | 17 | 277 | 1.6 | 11.3 | 0.99 | 2.90 | 0.25 | 90 | 1006.2 |
| 20260508223022 | 20 | 285 | 14.5 | 24.1 | 0.00 | 1.91 | 0.05 | 78 | 1006.3 |
| 20260508220017 | 18 | 269 | 8.0 | 22.5 | 0.00 | 1.91 | 0.05 | 86 | 1006.3 |
| 20260508213027 | 18 | 250 | 8.0 | 19.3 | 0.00 | 1.91 | 0.05 | 92 | 1006.3 |
| 20260508210036 | 16 | 268 | 4.8 | 16.1 | 0.00 | 1.91 | 0.05 | 97 | 1006.2 |
| 20260508203021 | 16 | 284 | 3.2 | 9.7 | 0.00 | 1.91 | 0.05 | 98 | 1006.1 |
| 20260508200037 | 15 | 275 | 3.2 | 9.7 | 0.00 | 1.91 | 0.05 | 97 | 1006.0 |
| 20260508193019 | 15 | 281 | 3.2 | 6.4 | 0.00 | 1.91 | 0.05 | 97 | 1006.0 |
| 20260508190036 | 15 | 264 | 4.8 | 12.9 | 0.00 | 1.91 | 0.05 | 97 | 1005.6 |
| 20260508183030 | 15 | 305 | 1.6 | 6.4 | 0.00 | 1.91 | 0.05 | 97 | 1005.6 |
| 20260508180030 | 15 | 312 | 3.2 | 6.4 | 0.00 | 1.91 | 0.05 | 97 | 1005.6 |
| 20260508173052 | 15 | 299 | 1.6 | 8.0 | 0.00 | 1.91 | 0.05 | 97 | 1005.6 |
| 20260508170021 | 15 | 318 | 0.0 | 3.2 | 0.00 | 1.91 | 0.05 | 96 | 1005.6 |
| 20260508163040 | 15 | 314 | 0.0 | 3.2 | 0.00 | 1.91 | 0.05 | 96 | 1005.8 |
| 20260508160032 | 15 | 297 | 1.6 | 6.4 | 0.00 | 1.91 | 0.05 | 96 | 1005.9 |
| 20260508153023 | 15 | 305 | 3.2 | 8.0 | 0.00 | 1.91 | 0.05 | 96 | 1006.1 |
| 20260508150020 | 15 | 235 | 1.6 | 6.4 | 0.00 | 1.91 | 0.05 | 96 | 1006.0 |
| 20260508143041 | 15 | 308 | 1.6 | 6.4 | 0.00 | 1.91 | 0.05 | 96 | 1006.3 |
| 20260508140019 | 15 | 10 | 4.8 | 6.4 | 0.10 | 1.91 | 0.05 | 96 | 1006.5 |
| 20260508133023 | 15 | 277 | 3.2 | 11.3 | 0.30 | 1.91 | 0.05 | 96 | 1007.0 |
| 20260508130041 | 15 | 358 | 3.2 | 9.7 | 0.20 | 1.80 | 0.05 | 95 | 1006.8 |
| 20260508123017 | 15 | 232 | 14.5 | 27.4 | 1.09 | 1.60 | 0.00 | 95 | 1006.9 |
| 20260508120030 | 16 | 242 | 9.7 | 24.1 | 1.09 | 1.60 | 0.33 | 94 | 1007.3 |
| 20260508113023 | 18 | 331 | 24.1 | 43.5 | 0.00 | 0.51 | 0.10 | 94 | 1006.5 |
| 20260508110019 | 18 | 5 | 20.9 | 45.1 | 0.00 | 0.51 | 0.10 | 94 | 1006.8 |
| 20260508103037 | 18 | 346 | 29.0 | 40.2 | 0.10 | 0.51 | 0.10 | 94 | 1007.3 |
| 20260508100028 | 18 | 327 | 25.7 | 35.4 | 0.41 | 0.51 | 0.10 | 94 | 1007.6 |
| 20260508093053 | 18 | 330 | 19.3 | 35.4 | 0.30 | 0.41 | 0.08 | 94 | 1008.2 |
| 20260508090048 | 18 | 5 | 12.9 | 30.6 | 0.00 | 0.10 | 0.03 | 94 | 1008.2 |